GFSWCAN_500_rhum_261.txt.gz
RH
56 53 42 42 74 100 100 100 100 100 90 96 78 50 44 44 32 24 21 21 21 18 16 19 21 22 19 26 33 40 40 37 33 34 30 25 24 23 19 15 12 12 13 13 17 16 13 26 32 40 47 52 48 43
69 55 59 54 66 99 100 100 100 100 100 92 71 58 50 38 28 24 19 19 20 21 21 19 20 22 24 32 40 46 37 43 38 38 32 31 28 28 23 19 16 13 14 13 14 13 15 15 20 42 48 44 40 45
94 100 96 100 91 100 100 80 88 78 78 71 72 84 69 72 51 32 32 29 31 27 22 23 22 24 24 27 36 58 44 40 40 48 48 45 38 30 27 26 22 19 15 14 15 16 16 17 16 24 30 28 33 44
100 85 100 100 98 100 100 100 95 100 81 86 82 100 100 100 100 83 66 60 48 40 30 26 25 29 32 33 38 46 54 53 60 63 66 59 50 38 34 32 27 24 22 21 18 17 16 16 17 19 20 23 30 42
100 100 100 100 97 100 100 100 94 93 94 97 93 98 100 100 100 88 75 65 59 71 69 50 41 39 36 40 56 75 77 81 80 74 71 64 59 54 47 42 29 29 27 25 22 22 21 21 24 24 25 25 31 34
99 100 100 99 100 100 100 100 87 61 69 71 98 100 100 100 89 84 88 73 61 59 59 65 68 79 77 65 59 82 99 100 100 92 90 82 66 66 56 48 40 39 35 32 28 26 24 24 36 37 32 34 34 32
100 100 100 100 100 100 92 61 61 95 98 100 100 100 100 100 95 100 88 76 72 78 85 82 80 84 92 100 100 100 100 100 100 100 100 95 82 79 72 29 41 50 46 41 36 31 29 36 40 37 37 37 37 41
100 98 100 100 100 98 80 99 100 90 100 100 100 100 100 100 100 97 68 97 100 95 75 64 52 55 75 86 96 99 100 100 100 100 100 100 100 91 61 30 38 48 56 55 54 54 44 43 44 52 46 40 39 43
100 100 100 100 100 100 100 100 100 100 100 100 100 100 100 100 100 100 99 99 86 76 68 66 44 39 54 65 75 85 92 96 98 93 91 100 92 77 41 42 44 61 60 66 71 75 70 61 56 51 48 47 50 60
100 100 100 100 100 100 100 100 98 100 100 100 100 100 100 100 100 93 94 100 100 84 80 73 46 31 30 30 41 49 56 78 86 87 100 100 68 48 49 46 44 54 54 74 75 92 100 85 72 63 62 58 57 66
100 100 100 100 100 100 100 99 100 100 100 100 100 100 100 100 100 100 100 100 94 88 60 55 37 28 26 27 33 41 60 73 74 74 84 75 62 64 59 54 53 63 72 70 73 80 99 95 79 79 75 74 81 87
100 100 100 100 100 100 100 99 85 92 92 95 96 100 100 100 100 100 97 96 80 67 55 44 28 24 22 18 18 19 32 81 86 70 70 66 66 63 70 79 92 79 77 60 47 60 64 68 84 93 98 99 98 87
100 100 100 100 100 100 100 100 100 100 99 100 99 100 100 98 100 98 88 74 60 45 33 34 32 34 29 29 25 23 21 30 82 81 54 43 45 87 100 96 76 60 51 59 61 59 66 84 96 100 100 96 73 58
100 100 100 100 100 100 100 97 95 100 100 100 100 93 98 98 93 74 51 53 66 68 60 52 42 39 37 32 30 27 24 16 41 53 43 44 99 100 100 100 86 77 76 73 81 96 100 98 88 74 53 44 39 35
100 100 100 100 100 100 92 100 100 100 100 98 95 90 83 82 81 65 60 51 48 47 51 42 45 49 44 38 27 35 32 14 29 38 53 100 96 100 100 90 96 95 93 96 97 93 84 62 45 40 37 34 31 28
63 77 94 97 96 100 100 100 100 100 99 97 94 90 86 82 76 84 84 72 61 71 73 51 45 44 34 35 58 63 30 15 32 78 100 98 100 96 95 91 86 87 91 88 73 50 38 34 33 34 35 34 30 27
31 33 46 54 55 54 46 36 34 37 44 49 44 36 52 98 100 100 100 100 100 100 96 84 61 44 40 41 59 78 44 32 73 100 100 100 100 94 92 92 62 48 43 34 30 26 24 24 26 27 25 23 23 20
72 42 38 33 33 34 35 42 54 55 37 28 40 52 56 68 86 99 96 99 96 90 78 75 83 68 42 51 41 37 67 100 100 100 99 100 87 80 76 60 44 36 31 29 22 19 19 19 18 18 16 13 13 13
99 86 73 72 70 63 54 45 32 18 25 35 47 57 66 67 66 90 86 71 81 100 94 74 75 61 44 58 74 100 100 100 100 100 100 97 80 68 60 47 38 31 26 22 20 18 16 15 13 12 12 13 14 14
100 100 81 58 52 50 38 30 30 36 42 49 58 63 76 88 69 100 100 100 100 100 98 90 70 34 46 69 100 100 100 100 99 92 91 89 72 56 48 40 33 28 27 25 22 21 21 18 16 15 16 14 14 18
100 100 82 66 53 50 44 42 42 57 67 74 88 97 94 100 100 92 96 99 91 68 56 56 64 88 100 100 100 100 100 100 100 100 92 80 73 52 48 40 35 49 62 60 55 47 42 35 27 24 22 22 27 29
100 100 93 87 92 93 72 50 58 75 64 64 63 83 67 56 67 75 73 55 36 32 42 45 54 84 95 100 98 91 87 88 81 80 81 94 100 88 80 81 90 88 93 78 73 64 59 53 52 42 35 41 39 42
100 100 100 100 100 100 96 65 59 73 66 69 87 95 98 96 78 81 48 40 38 56 89 100 100 88 86 97 100 96 80 72 77 83 83 89 98 99 100 94 92 82 73 71 67 79 86 86 76 60 59 67 73 77
100 100 100 100 100 100 90 74 66 63 65 63 52 50 84 100 100 99 76 85 97 92 94 97 100 100 99 100 98 82 75 69 94 86 79 80 82 76 70 61 68 72 71 69 70 70 71 79 82 81 81 87 80 76
100 100 100 95 91 97 78 62 64 73 68 75 68 53 62 91 81 74 51 96 90 100 100 100 100 100 95 96 84 90 94 57 42 62 95 90 90 93 98 100 95 89 78 73 70 73 78 82 88 90 83 48 55 55
93 91 86 77 73 71 45 36 54 53 62 73 67 66 67 64 60 45 64 100 100 100 99 77 76 69 54 55 56 66 85 60 60 72 96 95 100 99 90 85 90 78 74 79 85 88 92 98 89 47 31 30 35 57
100 92 71 35 52 62 57 45 52 70 81 83 70 67 69 60 46 44 56 86 100 100 87 74 69 69 63 55 50 58 68 73 83 97 97 95 90 88 86 89 93 86 83 92 99 100 98 59 39 70 99 99 91 99
89 68 54 42 42 54 62 72 74 80 91 83 83 78 58 65 59 61 71 79 100 92 69 57 49 51 63 87 97 99 96 93 96 100 100 100 100 99 97 90 84 91 100 100 99 88 56 43 74 100 100 100 100 100
52 52 66 80 98 100 97 86 91 82 81 76 73 72 46 56 70 68 53 64 98 97 90 72 56 69 83 82 77 85 96 100 100 100 100 100 100 99 96 98 100 100 99 82 52 50 58 68 100 100 100 100 100 100
100 100 100 100 100 94 89 81 85 90 100 100 100 85 59 48 51 54 55 72 86 94 100 100 100 90 84 76 82 94 100 100 98 100 100 100 92 74 64 73 75 56 40 36 47 73 88 100 100 100 100 100 100 91
95 98 100 99 92 88 89 83 65 85 93 83 84 100 100 98 95 85 82 86 81 92 100 100 94 88 86 88 91 93 91 93 94 87 72 55 45 40 41 39 35 34 42 40 54 68 98 100 100 89 94 100 100 84
100 95 77 71 74 70 74 82 95 100 100 95 95 84 67 61 63 60 61 62 79 92 92 84 72 67 66 66 64 59 55 52 47 41 35 33 37 32 30 35 30 45 49 49 56 98 100 89 67 71 97 100 87 68
100 100 92 77 61 64 93 99 96 83 82 78 87 92 91 82 64 60 71 69 64 64 62 56 47 44 45 46 48 60 64 52 41 44 40 34 31 30 44 44 34 38 42 67 100 100 75 55 61 88 96 89 75 63

GFSWCAN_500_rhum_267.txt.gz
RH
42 61 73 81 100 94 85 68 76 74 87 98 100 75 43 54 41 41 46 52 100 93 85 88 89 59 51 100 98 85 90 56 50 48 40 34 30 29 26 24 25 28 30 27 25 18 13 15 13 13 14 13 13 14
34 41 54 62 93 100 98 66 100 100 98 98 97 98 68 72 49 37 51 42 52 56 94 100 94 99 95 100 99 80 95 97 56 46 39 39 35 30 27 27 27 26 30 30 24 21 19 18 20 18 17 18 16 14
51 35 42 51 63 84 75 97 100 100 100 100 100 100 98 90 50 49 37 40 43 36 39 68 75 100 100 100 100 99 92 70 56 41 39 40 33 28 23 24 29 27 30 25 26 22 25 25 22 21 18 19 21 20
75 37 43 40 47 57 100 88 98 100 100 100 97 100 100 100 95 80 62 44 33 33 36 40 45 76 96 99 99 74 56 40 34 33 35 34 30 24 22 23 21 23 22 22 20 22 32 28 26 26 25 24 25 25
87 47 58 52 44 40 80 96 98 100 100 100 100 99 100 98 100 100 76 53 41 42 32 27 30 32 35 39 34 31 29 27 28 29 26 25 22 23 20 18 12 14 21 22 18 24 26 25 30 28 29 34 33 30
93 71 47 50 60 46 52 83 96 100 100 100 100 89 100 100 99 97 78 60 50 43 35 29 26 25 23 24 26 25 23 24 24 24 22 19 18 21 18 14 12 13 14 20 18 19 18 16 17 25 28 33 35 35
86 90 83 44 49 40 42 70 98 100 100 100 100 100 98 98 100 100 80 66 63 50 40 38 31 27 24 23 23 23 22 22 20 20 18 18 18 19 15 11 12 13 18 16 18 17 18 18 22 32 37 45 45 44
74 67 56 35 29 31 34 64 93 99 100 100 100 98 90 99 100 100 100 95 89 65 53 45 34 29 28 26 25 25 26 26 25 23 20 20 21 19 15 14 18 19 22 20 24 19 15 19 25 48 54 56 51 44
99 100 100 100 82 23 19 60 95 94 100 100 100 100 100 100 100 98 100 100 100 90 71 51 40 38 41 37 35 37 36 36 34 32 32 34 32 24 32 45 37 37 28 24 29 28 22 19 29 52 79 66 57 47
100 100 99 95 99 44 19 66 80 100 100 100 100 100 100 100 100 100 94 95 100 87 80 77 63 52 50 53 52 47 46 48 38 37 40 40 41 47 47 46 44 42 40 41 40 41 48 37 39 49 77 85 76 64
100 100 100 100 62 33 20 51 68 98 99 100 100 100 100 100 100 100 100 100 99 93 74 66 64 62 58 50 48 47 42 38 36 35 35 31 27 19 15 13 14 17 19 22 26 31 36 36 37 47 52 62 65 51
100 100 100 98 76 41 32 35 43 96 99 98 95 100 77 92 100 100 100 99 99 82 62 62 56 48 40 34 34 33 31 32 28 24 22 16 17 16 14 12 9 8 7 7 15 21 26 29 31 35 38 52 58 63
100 100 100 100 100 100 99 80 63 65 97 100 100 100 97 95 100 100 98 95 79 53 50 58 49 42 52 47 43 42 42 34 28 26 21 18 20 17 14 11 10 10 9 8 7 26 34 40 46 48 50 71 71 67
100 100 100 100 100 98 98 100 79 99 100 70 98 97 100 100 72 60 83 53 26 52 59 66 65 58 60 66 59 59 50 43 37 22 18 26 22 15 11 10 9 9 8 10 11 22 47 50 58 69 69 67 63 52
100 100 100 100 100 100 100 100 100 100 100 100 67 92 98 72 80 66 67 68 86 100 91 86 91 88 84 78 80 74 63 47 24 20 29 28 22 16 14 12 11 13 10 11 18 41 53 68 66 62 64 74 77 83
100 100 100 100 100 100 100 100 100 100 100 100 100 97 92 96 95 82 88 100 100 100 98 97 100 100 94 81 67 56 43 30 36 38 46 43 29 24 24 21 21 21 16 14 26 65 93 98 100 100 100 100 100 100
100 100 100 100 100 100 100 100 100 100 100 100 100 94 87 98 100 100 100 100 100 100 100 100 94 97 91 88 71 56 41 49 62 58 49 38 37 36 31 25 22 18 19 24 57 94 100 100 100 100 100 100 100 90
100 100 100 100 100 100 100 100 100 100 100 100 100 99 93 100 100 100 100 100 100 100 98 97 86 77 60 38 25 37 67 74 66 59 55 49 45 36 28 24 36 98 100 100 100 100 100 100 97 92 100 98 82 65
100 100 100 100 100 93 81 88 87 86 85 91 99 100 100 99 100 99 97 93 90 86 82 69 55 38 35 52 65 67 68 62 63 72 67 51 40 32 33 38 65 95 97 100 100 100 100 100 99 100 100 74 62 44
100 100 89 93 88 73 62 53 64 72 75 87 88 99 99 100 96 89 76 65 59 51 40 25 22 34 53 66 71 76 67 79 90 83 60 62 61 59 60 60 57 95 100 100 100 100 100 100 93 90 68 40 28 24
100 100 95 93 86 79 72 80 81 93 100 100 100 100 96 88 71 65 63 53 41 31 27 32 41 49 100 100 100 100 87 49 43 43 51 50 47 41 60 84 96 100 100 100 100 100 100 89 69 48 40 38 37 38
89 86 73 77 96 98 97 97 100 100 100 99 86 68 54 44 48 48 40 25 26 27 21 15 17 42 52 55 83 98 90 88 59 53 78 58 54 87 93 100 98 87 82 82 94 93 77 57 53 53 56 63 70 67
100 100 87 87 84 79 82 87 100 99 92 77 58 56 58 53 42 34 27 26 29 51 46 27 33 56 68 74 71 87 85 52 53 93 94 73 78 84 88 88 78 66 63 68 73 74 64 59 69 77 77 79 82 72
79 76 77 83 86 87 83 86 91 84 72 67 67 57 37 28 26 25 28 54 77 70 49 43 45 36 38 50 50 52 83 100 94 74 57 58 57 62 63 63 61 61 60 52 52 56 71 89 97 86 74 63 64 68
96 87 84 74 68 68 68 71 75 70 67 49 32 28 35 32 35 29 42 96 97 65 35 31 35 43 52 59 66 76 86 59 48 33 31 31 47 67 65 59 70 80 75 80 90 98 100 100 92 76 66 59 61 73
98 91 81 70 55 50 39 36 44 48 54 51 35 35 41 49 58 48 76 96 70 53 42 37 35 52 52 45 42 39 36 48 56 45 56 54 67 96 99 85 90 100 100 100 100 100 100 92 87 79 83 89 91 87
86 82 91 89 73 46 44 49 52 61 60 51 56 68 67 62 52 55 79 70 64 48 46 55 41 37 46 52 53 52 52 58 63 60 67 77 94 85 88 94 95 98 91 95 100 97 91 90 89 90 100 100 100 99
50 58 58 54 48 43 44 45 51 55 50 48 54 58 60 63 78 83 73 60 56 49 48 68 84 70 60 54 48 44 48 54 64 71 75 90 100 96 95 98 100 100 100 100 100 100 100 100 100 100 100 100 94 75
38 50 62 70 67 59 51 56 56 53 46 52 64 78 86 75 82 82 62 61 71 62 60 69 68 60 57 53 56 67 62 58 64 79 100 100 95 93 96 100 100 100 100 100 100 100 100 100 100 100 99 87 88 96
62 60 54 54 54 51 48 50 56 67 79 72 72 67 48 50 59 60 46 50 68 69 81 71 60 51 48 54 70 91 86 78 93 100 100 97 95 99 97 92 95 100 100 100 100 99 100 100 100 86 64 84 100 100
74 75 75 76 61 54 72 77 71 78 80 60 63 59 63 56 48 45 42 42 50 81 77 70 60 51 58 74 90 97 97 91 93 98 100 100 100 100 99 100 100 100 100 96 83 89 93 76 61 51 62 92 100 100
61 65 72 78 89 93 97 100 98 78 80 81 80 67 49 52 61 66 69 62 44 36 59 60 54 67 80 93 100 100 100 100 100 100 100 100 100 99 99 99 95 84 63 58 72 73 55 49 53 53 67 92 100 100
99 100 100 99 99 99 87 77 76 78 67 55 55 54 56 68 71 74 93 100 91 66 54 64 69 78 82 85 95 98 98 95 85 71 61 56 58 68 93 100 100 98 84 64 53 50 52 52 61 65 70 94 100 100

GFSWCAN_500_rhum_273.txt.gz
RH
97 76 39 42 62 88 100 62 100 97 100 100 96 55 88 54 64 47 48 85 88 99 96 99 98 99 99 90 89 90 98 95 93 88 82 81 76 75 72 64 47 40 35 32 30 26 22 25 23 26 22 21 21 20
98 91 64 32 46 74 90 100 95 95 97 100 88 99 93 71 99 53 66 100 100 100 98 100 99 100 98 100 100 89 100 100 98 95 95 83 68 66 96 81 59 50 45 40 37 34 30 28 27 27 26 26 23 21
98 93 80 48 35 56 67 100 100 100 99 100 100 100 100 100 100 70 52 83 100 99 100 99 99 98 96 100 95 100 98 99 95 98 87 97 88 92 82 63 56 54 53 47 40 34 32 29 29 26 27 25 25 26
99 97 90 72 32 44 63 96 100 79 100 100 100 100 100 100 100 83 52 53 100 98 98 97 98 99 97 99 98 86 94 99 100 99 90 93 87 72 65 55 47 46 43 39 35 31 31 32 29 25 22 23 22 21
98 100 96 84 23 36 47 66 100 76 81 100 100 100 100 90 80 63 57 72 85 100 99 98 99 100 100 100 99 90 80 76 86 90 83 91 91 70 74 74 58 75 72 66 64 49 32 23 21 20 18 17 16 14
97 98 99 83 19 29 41 41 58 92 75 82 75 99 87 100 100 93 72 99 58 81 98 100 99 100 100 100 99 100 74 59 66 94 100 83 52 84 60 66 88 80 69 56 51 43 34 23 16 16 15 14 14 13
98 94 96 95 33 27 38 38 75 84 60 50 47 95 98 100 100 98 100 89 91 74 84 100 100 99 100 98 97 99 100 99 100 88 97 91 80 71 59 52 70 76 72 62 42 27 20 18 15 14 14 14 13 13
100 96 95 100 69 25 42 41 40 82 95 90 99 100 100 100 100 100 100 95 80 82 99 96 94 92 100 97 70 85 99 100 100 94 90 92 86 90 80 70 76 72 58 54 42 22 16 14 14 13 14 14 14 16
100 100 100 100 96 28 30 53 48 78 100 100 100 100 100 100 100 90 90 100 95 85 82 74 77 85 92 80 54 100 84 85 96 96 94 80 75 64 46 36 34 30 27 20 18 17 16 15 15 16 18 21 22 23
100 100 100 100 100 49 28 49 44 70 100 100 99 100 99 99 99 100 100 100 100 100 100 100 85 73 62 66 86 84 82 72 48 43 41 40 41 40 30 23 21 20 19 18 18 18 19 19 21 23 24 18 11 8
89 99 100 100 100 74 33 45 53 82 100 93 98 100 100 100 100 100 100 100 100 100 93 98 96 90 85 92 86 72 65 54 43 36 32 27 26 24 26 23 22 23 24 25 25 25 26 26 26 20 14 9 8 7
32 53 100 100 100 66 37 42 61 79 83 86 98 100 100 100 100 100 100 100 100 99 88 70 64 70 84 72 76 69 56 49 48 41 42 41 35 32 34 35 36 36 37 37 35 30 24 18 14 12 9 7 6 7
62 56 78 99 67 42 49 44 76 80 86 100 100 100 100 100 100 100 100 97 86 79 81 58 46 61 80 83 76 66 60 56 52 48 46 46 47 44 44 44 41 34 27 22 18 16 13 12 10 8 8 8 8 8
100 100 79 72 52 42 64 50 45 52 79 100 100 100 100 100 98 82 70 65 59 63 66 60 68 68 62 64 62 58 58 58 55 47 40 45 44 36 30 17 14 12 10 11 11 11 12 12 12 11 10 10 8 8
100 100 100 92 66 41 55 51 39 40 97 100 100 100 100 93 92 100 79 58 72 85 74 76 71 67 60 55 56 45 42 36 27 25 30 25 18 16 16 16 16 16 16 16 16 16 15 14 13 13 12 11 9 9
100 100 100 100 98 59 43 52 43 46 99 100 100 100 92 93 86 66 57 66 83 100 93 78 58 50 48 46 39 34 27 21 23 26 25 25 26 26 24 22 22 23 23 20 19 18 15 14 12 11 11 10 12 15
100 100 100 100 100 92 32 47 40 90 100 100 99 78 81 68 93 83 90 99 100 95 94 77 63 55 42 39 36 36 32 32 33 35 35 33 30 28 26 26 29 25 23 15 12 12 12 12 13 17 21 20 18 20
95 90 84 100 100 100 62 49 51 92 100 100 99 88 89 98 100 100 100 100 100 100 100 84 76 66 57 51 56 50 50 57 55 49 46 44 38 31 28 27 29 21 12 13 14 14 15 20 25 29 28 22 44 86
91 52 100 100 100 100 75 72 100 100 97 72 60 87 100 100 100 100 100 99 98 100 100 100 100 88 81 82 82 76 80 82 83 79 76 64 47 36 38 35 22 16 16 16 18 22 27 36 42 38 24 49 86 100
92 87 100 100 100 82 94 100 99 87 80 86 98 100 100 100 100 100 100 100 100 100 97 100 94 88 100 100 98 88 100 98 92 82 67 50 37 29 20 15 15 17 20 24 31 41 50 44 44 33 72 91 100 100
98 88 70 73 97 100 95 97 98 100 100 100 99 100 100 100 100 100 100 100 100 99 100 100 100 92 84 84 86 90 100 100 82 59 25 16 14 11 10 10 14 20 30 41 48 25 21 35 39 60 100 100 100 100
100 100 100 100 100 100 97 86 98 99 98 96 100 100 98 98 98 95 100 100 99 86 73 69 75 88 98 84 66 38 29 22 20 18 16 13 11 10 11 12 20 36 54 34 31 40 46 39 67 100 100 100 100 100
100 100 100 100 99 99 98 99 98 97 95 100 100 100 100 100 100 100 100 94 88 90 95 77 51 34 24 19 15 12 10 9 11 11 10 9 8 6 6 11 49 39 33 41 58 71 82 88 87 100 98 100 100 100
100 100 100 100 100 100 100 100 100 100 97 100 100 100 100 97 94 92 85 75 59 44 33 24 16 10 10 11 11 8 7 6 8 8 6 7 10 15 29 43 63 37 46 66 70 79 93 99 97 96 99 99 98 97
100 100 100 100 100 100 100 99 100 100 100 100 99 98 94 85 77 66 50 37 28 21 15 12 12 11 10 10 10 9 9 10 15 19 28 36 51 55 56 51 51 58 61 57 80 74 66 75 80 80 79 100 92 87
100 100 99 96 92 89 93 95 97 92 82 72 68 62 53 46 39 33 26 23 20 18 15 14 13 12 11 14 15 14 16 22 26 27 32 32 39 51 55 51 55 72 94 100 99 97 73 68 80 83 84 82 80 81
94 91 94 89 83 84 82 86 87 82 80 71 61 51 45 46 44 34 29 26 23 21 22 17 12 14 16 18 16 20 25 30 33 37 43 51 60 83 98 99 100 96 93 89 88 99 92 90 97 100 100 100 100 92
73 75 78 79 74 63 62 59 62 59 60 59 56 54 54 49 40 32 28 24 24 24 17 14 14 16 19 21 20 24 32 43 47 49 53 72 76 72 71 68 70 78 100 100 96 100 100 100 100 100 100 99 98 95
89 84 81 74 64 64 65 66 65 62 59 60 56 52 48 44 42 37 31 27 21 19 19 19 21 20 21 28 25 28 40 50 50 54 62 70 76 70 67 68 80 99 100 100 100 100 100 100 100 100 100 100 100 97
95 89 86 79 76 70 66 63 58 57 62 62 58 54 46 40 36 32 28 24 25 28 26 24 25 30 30 29 28 36 42 44 52 58 65 83 91 79 80 96 100 100 100 100 100 100 98 98 100 100 98 95 90 87
72 68 72 73 70 66 65 64 60 62 67 64 54 48 45 40 36 34 34 35 32 30 28 32 33 32 33 30 34 36 38 49 57 86 99 96 98 99 92 81 83 92 98 99 98 97 94 93 90 89 89 99 99 94
100 97 88 84 79 72 63 61 60 59 58 57 55 51 46 46 46 44 46 39 31 28 26 20 14 15 19 22 41 54 58 56 78 100 100 100 100 98 96 97 98 99 100 100 100 100 100 100 97 99 100 100 100 100
100 100 97 90 87 87 80 72 68 66 62 57 51 47 44 42 38 39 38 34 31 29 26 25 22 32 32 22 23 52 56 52 56 86 97 100 100 100 100 100 95 90 91 95 100 100 100 100 100 100 100 100 100 100

GFSWCAN_500_rhum_276.txt.gz
RH
100 100 96 69 43 49 80 97 58 49 37 89 100 98 79 95 99 99 98 100 97 77 89 75 36 62 93 98 96 93 98 93 98 89 82 77 68 96 100 83 84 81 80 65 41 34 33 37 30 35 36 33 30 25
100 100 100 95 48 41 66 97 100 69 47 54 100 100 94 73 80 68 100 100 88 79 94 69 45 55 87 99 98 97 99 98 98 84 84 90 90 94 96 98 96 94 83 73 72 57 45 35 32 33 30 29 26 25
100 100 100 99 82 35 50 76 99 88 80 88 91 99 100 100 100 74 39 100 95 65 72 57 51 65 62 95 100 98 98 98 92 88 99 94 74 85 89 96 91 87 83 72 66 58 46 39 34 34 30 26 25 25
88 92 99 100 90 38 39 54 81 100 100 100 95 100 100 100 100 97 84 70 64 50 48 46 59 100 93 78 98 100 100 99 95 100 97 77 96 85 88 91 84 84 82 70 55 46 38 33 32 28 26 24 22 20
100 100 100 100 92 59 32 43 65 100 89 80 89 100 100 100 100 100 100 90 49 46 46 57 55 100 100 100 100 99 92 98 98 100 95 99 100 88 94 78 74 83 78 64 57 49 49 63 59 56 52 44 35 24
100 100 100 100 95 72 40 33 57 100 93 94 76 99 96 100 100 100 100 100 54 49 48 65 64 86 97 100 98 100 92 99 99 100 99 97 83 72 80 73 85 95 84 74 67 70 74 69 65 61 50 42 34 25
100 100 100 100 99 76 40 36 49 100 92 82 90 96 100 100 100 99 98 100 95 61 49 80 100 93 100 98 97 100 98 99 98 100 100 94 96 90 74 68 85 81 69 61 60 85 73 73 69 62 51 40 30 21
100 100 100 100 100 95 66 25 45 88 100 75 74 96 92 94 100 65 46 98 89 100 56 75 99 100 98 97 100 98 97 100 98 97 95 85 81 80 57 58 72 54 67 77 67 54 59 66 68 51 26 19 16 15
100 100 100 100 100 100 32 22 36 74 96 99 83 70 73 96 99 100 95 100 100 100 75 61 94 100 100 100 100 100 100 100 100 100 100 98 91 69 48 64 78 92 83 83 78 54 36 31 24 19 18 18 18 18
100 100 100 100 100 100 44 25 40 51 55 96 84 73 89 98 95 100 100 100 100 100 96 90 62 78 100 100 99 100 100 98 93 86 90 80 90 100 100 100 100 89 75 64 44 36 29 22 19 20 21 22 23 25
99 100 100 100 100 100 60 23 44 47 51 88 75 67 88 91 100 100 100 100 94 68 83 81 87 68 66 83 98 99 88 96 93 89 85 72 46 48 51 72 58 44 40 31 27 25 23 23 24 25 26 28 30 24
100 100 100 100 100 100 94 28 35 38 43 84 100 82 93 97 100 100 100 100 100 100 87 92 89 80 89 98 99 98 98 99 92 81 79 61 45 48 44 38 34 29 28 30 30 30 34 34 32 34 34 26 18 14
42 63 99 100 100 100 100 40 37 44 38 88 100 100 98 100 100 100 100 100 99 90 88 66 59 64 76 87 79 76 91 97 89 84 67 46 48 44 42 38 39 40 39 40 41 41 42 42 30 20 14 11 8 7
47 47 42 87 100 100 100 48 34 46 66 100 100 100 100 100 99 89 87 64 60 58 52 58 69 64 78 81 79 87 90 82 76 60 38 39 48 44 38 37 44 46 46 46 44 35 16 9 8 10 12 12 12 12
72 58 80 97 100 100 100 55 42 48 99 100 100 100 98 100 93 92 99 82 77 100 100 100 100 98 87 83 77 67 67 66 50 46 53 55 50 42 39 42 43 43 31 17 12 12 13 14 15 16 16 16 14 13
99 91 64 77 95 100 98 54 47 71 87 100 100 100 100 86 85 100 92 77 81 83 100 100 99 85 82 87 68 63 57 47 39 40 42 33 29 30 29 27 20 16 17 17 16 17 18 18 19 20 18 14 12 10
100 100 99 74 58 70 67 85 57 86 100 98 100 96 100 100 100 100 100 81 73 84 89 92 100 100 83 61 51 40 30 26 23 26 28 24 23 23 22 21 21 21 22 22 22 22 22 22 22 20 14 11 10 11
97 100 100 98 57 36 56 87 68 90 90 100 100 100 98 93 91 100 94 90 88 99 100 100 93 76 58 48 36 31 28 28 29 34 30 28 27 25 25 25 23 22 26 29 28 25 25 25 22 15 10 10 10 12
100 100 100 100 87 45 33 67 60 56 70 98 100 85 90 100 100 100 100 100 99 99 100 100 99 80 58 48 41 43 47 47 44 39 35 31 29 30 26 26 29 37 42 42 36 31 26 17 10 10 10 11 12 27
100 100 100 100 100 67 43 61 34 48 100 100 100 100 100 100 100 100 100 99 97 96 99 100 85 75 66 64 54 50 50 52 50 46 46 47 51 55 55 57 62 63 56 39 21 14 13 12 10 12 14 24 29 25
88 100 100 100 100 82 75 46 27 74 100 100 100 100 100 90 96 100 100 100 100 100 100 100 100 91 72 78 65 51 62 68 64 56 47 47 49 52 76 73 62 42 34 30 19 11 12 11 17 28 26 23 20 22
100 100 100 100 100 88 51 25 41 98 100 100 100 93 97 91 98 100 100 100 100 100 100 100 100 100 99 93 86 83 76 70 65 57 55 59 67 55 34 27 23 22 17 12 10 9 11 23 40 38 59 58 33 44
100 100 100 100 100 83 32 26 45 96 100 100 100 100 100 100 100 100 100 100 100 100 100 98 96 98 94 88 82 72 65 64 60 49 35 27 22 16 10 7 6 7 7 9 14 21 45 48 42 66 72 80 77 77
86 90 98 78 82 44 36 68 99 100 100 100 100 100 100 99 100 100 100 100 99 96 92 89 87 89 89 82 79 69 50 28 22 20 16 12 9 7 6 6 6 6 7 10 40 57 42 39 57 70 77 73 69 69
90 78 85 92 96 100 100 100 100 100 100 100 92 86 100 100 100 100 94 100 100 99 100 86 71 51 28 23 23 25 23 15 8 7 6 5 7 9 16 28 37 42 48 45 48 46 42 54 85 80 67 67 74 82
98 99 96 95 100 97 97 100 100 100 100 100 100 100 100 100 100 97 98 97 82 64 43 26 24 26 28 25 17 11 9 8 8 9 11 14 19 24 33 42 45 42 39 32 29 40 62 73 87 84 62 60 66 69
98 96 96 100 98 100 100 100 100 100 100 100 100 100 93 87 90 81 62 41 26 19 17 15 14 14 13 12 10 9 8 8 9 12 16 24 31 22 24 32 41 53 63 72 72 80 89 92 91 92 91 91 91 86
100 100 100 100 100 100 100 100 98 96 97 97 94 88 84 69 48 34 26 22 19 19 21 21 18 15 13 13 13 14 14 13 18 24 29 32 40 45 58 67 73 77 69 66 64 70 87 87 85 85 91 95 97 99
100 100 100 100 97 93 96 100 100 97 90 81 65 51 39 34 28 23 21 20 21 22 22 20 18 16 16 17 17 20 22 19 20 30 36 33 33 36 47 59 73 67 64 66 73 74 79 84 88 95 97 99 100 100
97 97 94 87 77 65 58 58 61 56 43 39 37 32 29 27 26 27 30 34 33 29 24 20 18 19 21 24 24 22 28 29 25 24 28 31 32 43 64 75 80 72 71 78 81 86 96 98 100 100 100 100 100 100
81 83 78 78 76 73 64 54 51 51 51 43 45 42 38 38 38 40 40 35 30 27 26 26 23 22 19 22 25 29 27 28 31 28 30 37 37 59 78 80 91 96 92 88 88 92 96 98 100 100 100 100 97 94
72 70 67 64 61 61 60 57 53 53 54 55 54 52 50 52 50 44 41 39 39 39 33 29 29 26 21 19 16 14 16 18 35 37 32 39 44 64 90 94 90 86 85 87 96 100 100 100 100 100 100 100 100 100
82 74 65 61 60 58 57 57 56 55 54 59 66 62 54 53 53 53 49 43 41 40 38 36 32 27 22 19 18 18 15 14 23 38 49 54 52 50 73 98 100 100 100 100 100 98 92 88 93 100 100 100 100 100